Location: B�retswil
(47.3376°N, 8.8534°E)
Time: 03:29:05
(UTC+00:00)

Cosmos 1689 Rocket - Pass Details

Date: 03 March 2021
Orbit: 350 x 361 km, 97.5° (Epoch: 16 April)

Event Time Altitude Azimuth Distance (km) Brightness Sun altitude
Rises 18:50:03 0° 3° (N) 2,212 6.0 -17.2°
Reaches altitude 10° 18:52:07 10° 352° (N) 1,363 5.0 -17.6°
Maximum altitude 18:54:42 30° 289° (WNW) 696 4.1 -18.0°
Drops below altitude 10° 18:57:17 10° 226° (SW) 1,360 5.3 -18.4°
Sets 18:59:20 0° 215° (SW) 2,206 6.2 -18.8°
